Torna al catalogo

STARLINK-6143

AttivoComunicazioniVLEO
NORAD 57133·PAYLOAD·🇺🇸 United States

Lanciato Jun 23, 2023 da Cape Canaveral Space Force Station

Loading…

Prossimi Passaggi (prossime 24 ore)

TLE

AggiornatoSource: CelesTrak SupGP

Epoca: Sep 14, 2026, 20:56 UTC

1 57133C 23090AJ  26257.87270833 -.00006816  00000+0 -24692-3 0  2578
2 57133  43.0020 274.8662 0002062 271.0882 221.2994 15.27575072    14

Traccia STARLINK-6143 in tempo reale con AllMySat

Download on the App Store